User: anonymous   Login
Location: Unspecified
(0.0000°N, 0.0000°E)
Time: 00:28:51
(UTC+00:00)
Language:

THEOS - Orbit

View from above orbital plane
View from above orbital plane
View from above satellite
View from above satellite

Ground track
Ground track

The orbit data is extracted from the following two-line orbital elements,

1 33396U 08049A   18203.51783926  .00000169  00000-0  99971-4 0  9995
2 33396  98.7284 270.8148 0001126 103.6723 312.7769 14.20021389508295
Epoch (UTC): 22 July 2018 12:25:41
Eccentricity: 0.0001126
inclination: 98.7284°
perigee height: 824 km
apogee height: 826 km
right ascension of ascending node: 270.8148°
argument of perigee: 103.6723°
revolutions per day: 14.20021389
mean anomaly at epoch: 312.7769°
orbit number at epoch: 50829

The dashed part of the orbit path shows where the satellite is in the earth's shadow,  

DLR